User: anonymous   Login
Location: *
(51.1248°S, 108.4023°W)
Time: 06:00:00
(UTC+00:00)
Language:

SJ-11-01 - Orbit

View from above orbital plane
View from above orbital plane
View from above satellite
View from above satellite

Ground track
Ground track

The orbit data is extracted from the following two-line orbital elements,

1 36088U 09061A   21267.53359191  .00000024  00000-0  14145-4 0  9990
2 36088  97.9502 288.7018 0012984  62.5608 297.6915 14.60230358632332
Epoch (UTC): 24 September 2021 12:48:22
Eccentricity: 0.0012984
inclination: 97.9502°
perigee height: 683 km
apogee height: 701 km
right ascension of ascending node: 288.7018°
argument of perigee: 62.5608°
revolutions per day: 14.60230358
mean anomaly at epoch: 297.6915°
orbit number at epoch: 63233

The dashed part of the orbit path shows where the satellite is in the earth's shadow,  

DLR